DW7787 Weather Reports


time (UTC)temp
C
wind
direction
speed
KPH
gust
KPH
rain 1hr
cm
rain 24hr
cm
rain mn
cm
humidity
%
barometer
mb
20260506091803 16 255 1.6 6.4 0.00 0.00 0.00 75 1014.3
20260506091304 16 243 0.0 4.8 0.00 0.00 0.00 75 1014.4
20260506090803 16 109 0.0 3.2 0.00 0.00 0.00 74 1014.5
20260506090301 16 252 1.6 6.4 0.00 0.00 0.00 74 1014.5
20260506085802 16 153 1.6 6.4 0.00 0.00 0.00 74 1014.6
20260506085305 16 51 1.6 9.7 0.00 0.00 0.00 74 1014.6
20260506084801 16 145 1.6 9.7 0.00 0.00 0.00 74 1014.7
20260506084303 17 159 1.6 4.8 0.00 0.00 0.00 74 1014.8
20260506083802 17 55 0.0 4.8 0.00 0.00 0.00 74 1014.8
20260506083259 17 208 1.6 6.4 0.00 0.00 0.00 73 1014.8
20260506082753 17 229 1.6 6.4 0.00 0.00 0.00 73 1014.8
20260506082247 17 198 1.6 6.4 0.00 0.00 0.00 73 1014.9
20260506081741 17 159 1.6 8.0 0.00 0.00 0.00 73 1014.8
20260506081241 17 204 1.6 8.0 0.00 0.00 0.00 73 1014.8
20260506080739 17 175 1.6 9.7 0.00 0.00 0.00 73 1014.8
20260506080532 17 173 1.6 9.7 0.00 0.00 0.00 73 1014.8
20260506073236 17 36 1.6 6.4 0.00 0.00 0.00 71 1015.0
20260506072738 17 198 3.2 6.4 0.00 0.00 0.00 71 1015.0
20260506072528 17 170 3.2 8.0 0.00 0.00 0.00 71 1014.9
20260506071734 17 71 3.2 8.0 0.00 0.00 0.00 71 1015.0
20260506071230 17 213 1.6 8.0 0.00 0.00 0.00 71 1015.0
20260506070732 17 194 1.6 4.8 0.00 0.00 0.00 71 1014.9
20260506070230 17 184 3.2 6.4 0.00 0.00 0.00 71 1014.8
20260506062209 18 126 3.2 9.7 0.00 0.00 0.00 70 1015.1
20260506061707 18 205 1.6 6.4 0.00 0.00 0.00 70 1015.3
20260506061208 18 204 3.2 6.4 0.00 0.00 0.00 69 1015.2
20260506061002 18 157 3.2 6.4 0.00 0.00 0.00 69 1015.2
20260506060502 18 226 1.6 8.0 0.00 0.00 0.00 69 1015.2
20260506051008 18 105 3.2 9.7 0.00 0.00 0.00 66 1015.5
20260506050205 18 149 3.2 9.7 0.00 0.00 0.00 65 1015.4
20260506044702 19 78 3.2 14.5 0.00 0.00 0.00 65 1015.3
20260506044203 19 137 3.2 14.5 0.00 0.00 0.00 64 1015.4
20260506043702 19 239 3.2 11.3 0.00 0.00 0.00 64 1015.4
20260506043201 19 77 3.2 11.3 0.00 0.00 0.00 63 1015.4
20260506042703 19 140 3.2 11.3 0.00 0.00 0.00 63 1015.4
20260506042201 19 250 3.2 11.3 0.00 0.00 0.00 63 1015.4
20260506041702 19 160 3.2 11.3 0.00 0.00 0.00 63 1015.3
20260506041202 20 132 3.2 11.3 0.00 0.00 0.00 62 1015.2
20260506040703 20 145 3.2 12.9 0.00 0.00 0.00 62 1015.1
20260506040202 20 126 4.8 12.9 0.00 0.00 0.00 61 1015.0
20260506035702 20 144 4.8 11.3 0.00 0.00 0.00 61 1015.1
20260506035203 20 142 3.2 8.0 0.00 0.00 0.00 60 1015.0
20260506034701 20 290 3.2 8.0 0.00 0.00 0.00 60 1015.1
20260506034500 20 125 3.2 8.0 0.00 0.00 0.00 59 1015.1
20260506033701 20 158 3.2 8.0 0.00 0.00 0.00 59 1014.9
20260506033201 20 112 3.2 8.0 0.00 0.00 0.00 59 1014.9
20260506032701 20 138 3.2 8.0 0.00 0.00 0.00 58 1014.9
20260506032201 20 169 3.2 6.4 0.00 0.00 0.00 57 1014.9
20260506031701 20 134 3.2 6.4 0.00 0.00 0.00 57 1014.8
20260506031323 20 63 3.2 6.4 0.00 0.00 0.00 56 1014.9
20260506031256 20 128 3.2 6.4 0.00 0.00 0.00 56 1014.8
20260506030201 20 141 3.2 4.8 0.00 0.00 0.00 55 1014.8
20260506025703 20 140 1.6 4.8 0.00 0.00 0.00 54 1014.8
20260506025204 20 145 1.6 4.8 0.00 0.00 0.00 54 1014.9
20260506024705 20 164 1.6 3.2 0.00 0.00 0.00 54 1014.9
20260506024201 20 164 1.6 4.8 0.00 0.00 0.00 54 1014.9
20260506023702 20 165 1.6 4.8 0.00 0.00 0.00 54 1015.1
20260506023201 20 198 1.6 3.2 0.00 0.00 0.00 54 1015.2
20260506022702 20 200 0.0 1.6 0.00 0.00 0.00 53 1015.3
20260506022202 20 200 0.0 1.6 0.00 0.00 0.00 51 1015.3
20260506021701 20 200 0.0 1.6 0.00 0.00 0.00 51 1015.3
20260506021454 20 200 0.0 1.6 0.00 0.00 0.00 50 1015.2
20260506020653 21 200 0.0 3.2 0.00 0.00 0.00 48 1015.2
20260506020153 21 200 0.0 1.6 0.00 0.00 0.00 49 1015.2
20260506020111 21 200 0.0 1.6 0.00 0.00 0.00 47 1015.1
20260506020107 21 200 0.0 1.6 0.00 0.00 0.00 48 1015.2
20260506014945 21 200 0.0 1.6 0.00 0.00 0.00 46 1015.2
20260506014148 21 200 0.0 1.6 0.00 0.00 0.00 46 1015.1
20260506013648 21 200 0.0 1.6 0.00 0.00 0.00 46 1015.1
20260506013148 21 207 0.0 1.6 0.00 0.00 0.00 46 1014.9
20260506012648 22 207 0.0 1.6 0.00 0.00 0.00 45 1014.9
20260506012146 22 207 0.0 3.2 0.00 0.00 0.00 45 1015.0
20260506011646 22 207 0.0 3.2 0.00 0.00 0.00 45 1014.9
20260506011146 22 160 0.0 3.2 0.00 0.00 0.00 44 1014.9
20260506010643 22 160 0.0 3.2 0.00 0.00 0.00 44 1014.8
20260506010145 22 158 0.0 1.6 0.00 0.00 0.00 44 1014.8
20260506005642 22 139 0.0 1.6 0.00 0.00 0.00 44 1014.7
20260506005140 22 139 0.0 1.6 0.00 0.00 0.00 43 1014.7
20260506004943 22 139 0.0 1.6 0.00 0.00 0.00 43 1014.6
20260506004138 22 139 0.0 1.6 0.00 0.00 0.00 42 1014.4
20260506003635 23 139 0.0 1.6 0.00 0.00 0.00 42 1014.6
20260506003136 23 139 0.0 1.6 0.00 0.00 0.00 42 1014.6
20260506002635 23 195 0.0 1.6 0.00 0.00 0.00 42 1014.6
20260506002135 23 195 0.0 1.6 0.00 0.00 0.00 42 1014.4
20260506001637 23 195 0.0 1.6 0.00 0.00 0.00 41 1014.5
20260506001135 23 195 0.0 3.2 0.00 0.00 0.00 41 1014.5
20260506000635 23 149 0.0 3.2 0.00 0.00 0.00 41 1014.3
20260506000135 23 205 1.6 4.8 0.00 0.00 0.00 41 1014.3
20260505235636 23 219 1.6 11.3 0.00 0.00 0.00 40 1014.2
20260505235421 23 51 1.6 11.3 0.00 0.00 0.00 40 1014.3
20260505234634 24 82 1.6 6.4 0.00 0.00 0.00 40 1014.3
20260505234134 24 209 1.6 6.4 0.00 0.00 0.00 40 1014.2
20260505233635 24 207 1.6 6.4 0.00 0.00 0.00 40 1014.0
20260505233542 24 186 1.6 4.8 0.00 0.00 0.00 39 1014.2
20260505233538 24 200 1.6 4.8 0.00 0.00 0.00 39 1014.2
20260505232135 25 211 1.6 4.8 0.00 0.00 0.00 39 1014.2
20260505231635 25 207 1.6 6.4 0.00 0.00 0.00 39 1014.3
20260505231439 25 200 1.6 6.4 0.00 0.00 0.00 38 1014.2
20260505230634 25 128 1.6 6.4 0.00 0.00 0.00 39 1014.2
20260505230134 25 207 1.6 6.4 0.00 0.00 0.00 39 1014.2
20260505225634 25 138 1.6 6.4 0.00 0.00 0.00 40 1014.2
20260505225135 25 91 1.6 4.8 0.00 0.00 0.00 39 1014.0
20260505224925 25 102 1.6 6.4 0.00 0.00 0.00 39 1014.0
20260505224441 25 215 3.2 6.4 0.00 0.00 0.00 37 1014.2
20260505223631 25 194 3.2 19.3 0.00 0.00 0.00 37 1014.0
20260505223133 25 183 4.8 19.3 0.00 0.00 0.00 37 1014.0
20260505222632 25 223 3.2 8.0 0.00 0.00 0.00 37 1014.2
20260505222133 26 162 4.8 9.7 0.00 0.00 0.00 37 1014.3
20260505221632 26 194 3.2 9.7 0.00 0.00 0.00 36 1014.3
20260505221129 26 229 3.2 11.3 0.00 0.00 0.00 37 1014.4
20260505220715 26 197 1.6 6.4 0.00 0.00 0.00 36 1014.6
20260505220658 26 167 3.2 11.3 0.00 0.00 0.00 36 1014.3
20260505215615 26 83 3.2 11.3 0.00 0.00 0.00 36 1014.5
20260505215113 26 119 3.2 11.3 0.00 0.00 0.00 36 1014.4
20260505214614 26 226 3.2 11.3 0.00 0.00 0.00 36 1014.5
20260505214113 26 124 3.2 11.3 0.00 0.00 0.00 36 1014.5
20260505213613 26 160 3.2 12.9 0.00 0.00 0.00 36 1014.7
20260505213112 26 346 4.8 12.9 0.00 0.00 0.00 36 1014.6
20260505212611 26 194 4.8 12.9 0.00 0.00 0.00 36 1014.6
20260505212112 26 200 4.8 12.9 0.00 0.00 0.00 35 1014.5
20260505211611 26 196 3.2 9.7 0.00 0.00 0.00 35 1014.6
20260505211111 26 86 3.2 8.0 0.00 0.00 0.00 36 1014.7
20260505210913 26 176 3.2 16.1 0.00 0.00 0.00 36 1014.7
20260505210111 26 214 3.2 16.1 0.00 0.00 0.00 36 1014.6
20260505205609 26 209 4.8 14.5 0.00 0.00 0.00 36 1014.7
20260505205107 26 121 3.2 14.5 0.00 0.00 0.00 37 1014.7
20260505204606 26 196 3.2 8.0 0.00 0.00 0.00 36 1014.7
20260505204107 26 186 3.2 8.0 0.00 0.00 0.00 36 1014.9
20260505203609 26 221 3.2 8.0 0.00 0.00 0.00 35 1014.9
20260505203106 26 221 3.2 12.9 0.00 0.00 0.00 37 1014.9
20260505202605 26 161 3.2 12.9 0.00 0.00 0.00 37 1014.9
20260505202105 26 115 4.8 12.9 0.00 0.00 0.00 35 1015.1
20260505201605 27 107 3.2 12.9 0.00 0.00 0.00 35 1015.1
20260505201103 27 207 3.2 11.3 0.00 0.00 0.00 36 1015.1
20260505200605 27 241 4.8 14.5 0.00 0.00 0.00 33 1014.9
20260505200103 27 199 4.8 14.5 0.00 0.00 0.00 35 1015.1
20260505195606 27 193 4.8 11.3 0.00 0.00 0.00 35 1015.2
20260505195103 27 196 4.8 9.7 0.00 0.00 0.00 34 1015.2
20260505194741 27 75 3.2 9.7 0.00 0.00 0.00 33 1015.4
20260505194710 27 243 3.2 9.7 0.00 0.00 0.00 34 1015.2
20260505193603 27 219 3.2 9.7 0.00 0.00 0.00 35 1015.3
20260505193433 26 159 4.8 9.7 0.00 0.00 0.00 35 1015.6
20260505192603 27 218 3.2 9.7 0.00 0.00 0.00 36 1015.8
20260505192104 27 222 3.2 8.0 0.00 0.00 0.00 35 1015.8
20260505191610 26 152 3.2 8.0 0.00 0.00 0.00 35 1015.9
20260505191107 26 155 3.2 8.0 0.00 0.00 0.00 37 1016.0
20260505190607 26 148 4.8 11.3 0.00 0.00 0.00 36 1016.1
20260505185556 26 235 4.8 12.9 0.00 0.00 0.00 35 1016.2
20260505185049 26 175 4.8 12.9 0.00 0.00 0.00 35 1016.2
20260505184852 26 331 4.8 9.7 0.00 0.00 0.00 37 1016.2
20260505184340 26 57 4.8 9.7 0.00 0.00 0.00 38 1016.3
20260505183533 26 75 3.2 14.5 0.00 0.00 0.00 38 1016.6
20260505183033 26 55 3.2 14.5 0.00 0.00 0.00 38 1016.7
20260505182535 26 112 4.8 9.7 0.00 0.00 0.00 39 1016.8
20260505182034 25 190 4.8 11.3 0.00 0.00 0.00 39 1016.9
20260505181534 25 209 4.8 11.3 0.00 0.00 0.00 37 1017.1
20260505181036 26 231 4.8 16.1 0.00 0.00 0.00 38 1017.1
20260505180531 26 209 4.8 16.1 0.00 0.00 0.00 36 1017.1
20260505180334 26 203 4.8 11.3 0.00 0.00 0.00 36 1017.1
20260505175530 25 222 4.8 11.3 0.00 0.00 0.00 35 1017.1
20260505175030 26 208 3.2 12.9 0.00 0.00 0.00 36 1017.1
20260505174529 25 219 3.2 12.9 0.00 0.00 0.00 35 1017.0
20260505174030 25 295 4.8 12.9 0.00 0.00 0.00 35 1017.0
20260505173529 25 156 4.8 12.9 0.00 0.00 0.00 36 1016.9
20260505173029 26 192 3.2 11.3 0.00 0.00 0.00 35 1016.9
20260505172532 26 159 3.2 11.3 0.00 0.00 0.00 37 1017.0
20260505172030 25 141 4.8 11.3 0.00 0.00 0.00 37 1017.0
20260505171533 25 207 3.2 11.3 0.00 0.00 0.00 35 1017.2
20260505171026 25 105 3.2 11.3 0.00 0.00 0.00 37 1017.1
20260505170526 25 193 3.2 9.7 0.00 0.00 0.00 40 1017.1
20260505170029 25 92 3.2 8.0 0.00 0.00 0.00 40 1017.1
20260505165526 24 38 3.2 11.3 0.00 0.00 0.00 42 1017.2
20260505165323 24 107 4.8 11.3 0.00 0.00 0.00 40 1017.3
20260505164527 24 253 3.2 11.3 0.00 0.00 0.00 41 1017.3
20260505164026 23 144 3.2 9.7 0.00 0.00 0.00 46 1017.4
20260505163526 23 129 3.2 9.7 0.00 0.00 0.00 43 1017.5
20260505163027 24 304 3.2 12.9 0.00 0.00 0.00 45 1017.5
20260505162753 23 186 3.2 12.9 0.00 0.00 0.00 47 1017.5
20260505162528 23 186 3.2 12.9 0.00 0.00 0.00 47 1017.5
20260505162025 23 281 3.2 6.4 0.00 0.00 0.00 47 1017.7
20260505161527 23 230 3.2 11.3 0.00 0.00 0.00 46 1017.7
20260505161026 23 210 3.2 11.3 0.00 0.00 0.00 47 1017.7
20260505160829 23 230 3.2 11.3 0.00 0.00 0.00 48 1017.7
20260505153021 21 111 3.2 8.0 0.00 0.00 0.00 55 1017.7
20260505152820 21 212 3.2 8.0 0.00 0.00 0.00 56 1017.7
20260505152020 21 200 3.2 8.0 0.00 0.00 0.00 57 1017.7
20260505151519 21 207 3.2 6.4 0.00 0.00 0.00 57 1017.7
20260505151018 21 63 3.2 6.4 0.00 0.00 0.00 59 1017.9
20260505150518 20 219 3.2 6.4 0.00 0.00 0.00 60 1018.0
20260505140325 17 199 1.6 6.4 0.00 0.00 0.00 70 1017.5
20260505125005 15 327 3.2 8.0 0.00 0.00 0.00 77 1017.5
20260505124505 15 219 1.6 8.0 0.00 0.00 0.00 78 1017.4
20260505124000 15 204 1.6 6.4 0.00 0.00 0.00 78 1017.5
20260505123504 15 117 3.2 8.0 0.00 0.00 0.00 78 1017.5
20260505123312 15 175 3.2 8.0 0.00 0.00 0.00 78 1017.6
20260505122459 14 113 1.6 6.4 0.00 0.00 0.00 79 1017.6
20260505122000 14 196 1.6 8.0 0.00 0.00 0.00 79 1017.5
20260505121809 14 213 1.6 8.0 0.00 0.00 0.00 79 1017.5
20260505121308 13 207 1.6 4.8 0.00 0.00 0.00 80 1017.5
20260505120454 13 256 1.6 8.0 0.00 0.00 0.00 80 1017.5
20260505120259 13 227 1.6 8.0 0.00 0.00 0.00 80 1017.4
20260505115451 13 208 0.0 4.8 0.00 0.00 0.00 80 1017.4
20260505115259 13 211 0.0 3.2 0.00 0.00 0.00 80 1017.3
20260505114758 13 229 0.0 3.2 0.00 0.00 0.00 80 1017.3
20260505113944 13 5 0.0 1.6 0.00 0.00 0.00 80 1017.2
20260505113440 13 192 0.0 4.8 0.00 0.00 0.00 79 1017.2
20260505112938 13 192 0.0 4.8 0.00 0.00 0.00 79 1017.2
20260505112438 13 177 0.0 3.2 0.00 0.00 0.00 78 1017.2
20260505111935 13 57 0.0 3.2 0.00 0.00 0.00 78 1017.1
20260505111434 13 200 0.0 1.6 0.00 0.00 0.00 78 1017.2
20260505111239 13 200 0.0 0.0 0.00 0.00 0.00 77 1017.1
20260505110604 13 200 0.0 1.6 0.00 0.00 0.00 76 1017.1
20260505110539 13 200 0.0 1.6 0.00 0.00 0.00 77 1017.1
20260505102221 14 274 0.0 1.6 0.00 0.00 0.00 74 1017.1
20260505101430 14 298 0.0 3.2 0.00 0.00 0.00 74 1017.0
20260505101234 14 308 1.6 6.4 0.00 0.00 0.00 74 1016.9
20260505100424 14 254 1.6 6.4 0.00 0.00 0.00 73 1016.9
20260505095918 14 290 0.0 3.2 0.00 0.00 0.00 73 1016.9
20260505095739 14 290 0.0 3.2 0.00 0.00 0.00 73 1016.7
20260505094908 14 267 1.6 9.7 0.00 0.00 0.00 72 1016.7
20260505094357 14 24 1.6 9.7 0.00 0.00 0.00 73 1016.6
20260505093851 14 51 1.6 6.4 0.00 0.00 0.00 72 1016.6
20260505093345 15 182 1.6 6.4 0.00 0.00 0.00 72 1016.6
20260505092839 15 271 1.6 6.4 0.00 0.00 0.00 71 1016.6
20260505092338 15 221 1.6 4.8 0.00 0.00 0.00 71 1016.6